Location: Unspecified
(54.1780°N, 0.0000°E)
Time: 02:42:47
(UTC+00:00)

Explorer 7 - Pass Details

Date: 25 June 2019
Orbit: 485 x 680 km, 50.3° (Epoch: 16 July)

Event Time Altitude Azimuth Distance (km) Brightness Sun altitude
Rises 08:55:00 0° 237° (WSW) 2,759 10.1 43.5°
Reaches altitude 10° 08:57:17 10° 229° (SW) 1,897 9.5 43.9°
Maximum altitude 09:01:20 39° 161° (SSE) 918 9.0 44.4°
Drops below altitude 10° 09:05:38 10° 93° (E) 2,017 10.6 45.0°
Sets 09:08:08 0° 86° (E) 2,957 11.1 45.3°
